Seattle, WA
on Thursday, November 8, 2012

Thursday
Previous Day Next Day
Daily Summary
 ActualAverageRecord
Temperature
Mean Temperature °F 47°F  
Max Temperature 50°F 53°F 64°F (1952)
Min Temperature 34°F 42°F 27°F (1948)
Degree Days
Heating Degree Days 23 18  
Month to date heating degree days 102 137  
Since 1 July heating degree days 595 734  
Cooling Degree Days 0 0  
Month to date cooling degree days 0 0  
Year to date cooling degree days 177 189  
Moisture
Dew Point 34°F   
Average Humidity 77    
Maximum Humidity 92    
Minimum Humidity 61    
Precipitation
Precipitation T in 0.22 in 0.85 in (2000)
Month to date precipitation 0.98 1.61  
Year to date precipitation 34.11 27.18  
Snow
Snow 0.00 in in T in (1992)
Month to date snowfall 0.0  
Since 1 July snowfall 0.0  
Snow Depth 0.00 in   
Wind
Wind Speed 8 mph   
Max Wind Speed 20 mph   
Max Gust Speed 24 mph   
Visibility 8 miles   
Events Fog   

Key: T is trace of precipitation, MM is missing value
Source: NWS Daily Summary
Time(PST)TemperatureDew PointHumidity Pressure Visibility Wind DirectionWind SpeedGust SpeedPrecipitationEvents Conditions
12:53 AM 41.0°F 35.1°F 79% 29.95 in 10.0 miles SE 6.9 mph - N/A   Partly Cloudy
1:53 AM 39.9°F 34.0°F 79% 29.93 in 10.0 miles East 4.6 mph - N/A   Clear
2:53 AM 37.9°F 33.1°F 83% 29.92 in 10.0 miles NE 5.8 mph - N/A   Clear
3:53 AM 39.0°F 33.1°F 79% 29.90 in 10.0 miles Calm Calm - N/A   Clear
4:50 AM 37.4°F 33.8°F 87% 29.87 in 10.0 miles Calm Calm - N/A   Scattered Clouds
4:53 AM 37.0°F 33.1°F 86% 29.90 in 10.0 miles Calm Calm - N/A   Scattered Clouds
5:02 AM 37.4°F 33.8°F 87% 29.87 in 5.0 miles Calm Calm - N/A   Mostly Cloudy
5:14 AM 37.4°F 33.8°F 87% 29.87 in 0.8 miles NE 4.6 mph - N/A   Mostly Cloudy
5:31 AM 35.6°F 33.8°F 93% 29.86 in 4.0 miles NNE 3.5 mph - N/A Fog Patches of Fog
5:41 AM 35.6°F 33.8°F 93% 29.86 in 3.0 miles North 4.6 mph - N/A Fog Patches of Fog
5:48 AM 33.8°F 32.0°F 93% 29.86 in 0.8 miles North 5.8 mph - N/A Fog Patches of Fog
5:53 AM 35.1°F 33.1°F 92% 29.88 in 0.8 miles NNE 5.8 mph - N/A Fog Patches of Fog
6:06 AM 35.6°F 33.8°F 93% 29.85 in 10.0 miles NNE 6.9 mph - N/A Fog Patches of Fog
6:53 AM 36.0°F 34.0°F 93% 29.87 in 10.0 miles North 4.6 mph - N/A Fog Patches of Fog
7:47 AM 37.4°F 33.8°F 87% 29.84 in 1.0 miles North 5.8 mph - N/A Fog Patches of Fog
7:53 AM 37.9°F 35.1°F 89% 29.87 in 10.0 miles North 5.8 mph - N/A Fog Patches of Fog
8:53 AM 41.0°F 35.1°F 79% 29.86 in 10.0 miles North 12.7 mph - N/A   Scattered Clouds
9:53 AM 43.0°F 36.0°F 76% 29.86 in 10.0 miles North 9.2 mph - N/A   Mostly Cloudy
10:53 AM 45.0°F 36.0°F 71% 29.87 in 10.0 miles NNE 12.7 mph - N/A   Mostly Cloudy
11:53 AM 48.0°F 35.1°F 61% 29.85 in 10.0 miles North 15.0 mph - N/A   Mostly Cloudy
12:53 PM 48.9°F 36.0°F 61% 29.85 in 10.0 miles North 11.5 mph 19.6 mph 0.00 in   Mostly Cloudy
1:53 PM 48.9°F 35.1°F 59% 29.84 in 10.0 miles North 13.8 mph - N/A   Mostly Cloudy
2:53 PM 48.9°F 35.1°F 59% 29.84 in 10.0 miles North 15.0 mph - N/A   Mostly Cloudy
3:53 PM 46.9°F 36.0°F 66% 29.84 in 10.0 miles North 17.3 mph - N/A   Mostly Cloudy
4:53 PM 45.0°F 36.0°F 71% 29.85 in 10.0 miles North 9.2 mph - N/A   Mostly Cloudy
5:53 PM 42.1°F 35.1°F 76% 29.85 in 10.0 miles North 6.9 mph - N/A   Scattered Clouds
6:53 PM 42.1°F 33.1°F 70% 29.86 in 10.0 miles North 6.9 mph - N/A   Partly Cloudy
7:53 PM 42.1°F 33.1°F 70% 29.85 in 10.0 miles North 4.6 mph - N/A   Partly Cloudy
8:53 PM 39.9°F 32.0°F 73% 29.86 in 10.0 miles North 6.9 mph - N/A   Partly Cloudy
9:53 PM 42.1°F 32.0°F 67% 29.86 in 10.0 miles NNW 3.5 mph - N/A   Partly Cloudy
10:53 PM 41.0°F 32.0°F 70% 29.86 in 10.0 miles NNW 3.5 mph - N/A   Scattered Clouds
11:53 PM 41.0°F 32.0°F 70% 29.86 in 10.0 miles Calm Calm - N/A   Partly Cloudy
Moon Phase
Nov. 08 Nov. 13 Nov. 20 Nov. 28 Dec. 06
Sunrise:07:04 AM (PST) Moon Rise:12:42 AM (PST)11/8
Sunset:04:41 PM (PST) Moon Set:01:45 PM (PST)11/8

Copyright © 2014 The Weather Underground, Inc.